Location: Unspecified
(40.9799°N, 76.1133°W)
Time: 05:19:30
(UTC-04:00)

X-37B - Visible Passes

Search period start: 03 October 2022 00:00
Search period end: 13 October 2022 00:00
Orbit: 329 x 342 km, 45.0° (Epoch: 29 September)

Date Brightness Start Highest point End Pass type
(mag) Time Alt. Az. Time Alt. Az. Time Alt. Az.
03 Oct 3.6 04:43:28 15° ENE 04:43:28 15° ENE 04:44:07 10° ENE visible
03 Oct 0.3 06:14:42 14° WNW 06:17:06 85° SSW 06:19:58 10° ESE visible
04 Oct 2.5 05:03:15 27° ENE 05:03:15 27° ENE 05:04:50 10° E visible
04 Oct 1.2 06:34:47 10° W 06:37:27 34° SSW 06:40:06 10° SE visible
05 Oct 1.0 05:23:08 51° ESE 05:23:08 51° ESE 05:25:25 10° ESE visible
06 Oct 1.3 05:43:09 33° SSW 05:43:09 33° SSW 05:45:33 10° SE visible
07 Oct 2.5 06:03:17 14° SSW 06:03:17 14° SSW 06:04:42 10° S visible
